Regional Weather Roundup
Issued by NWS Newport/Morehead, NC

Current Version | Previous Version | Text Only | Print | Product List | Glossary Off
Versions: 1 2 3 4 5 6 7 8 9 10 11 12 13 14 15 16 17 18 19 20 21 22 23 24 25 26 27 28 29 30 31 32 33 34 35 36 37 38 39 40 41 42 43 44 45 46 47 48 49 50
496 ASUS42 KMHX 200725 RWRMHX WEATHER ROUNDUP FOR EASTERN NORTH CAROLINA NATIONAL WEATHER SERVICE NEWPORT/MOREHEAD CITY NC 200 AM EST MON FEB 20 2017 NOTE: "FAIR" INDICATES FEW OR NO CLOUDS BELOW 12,000 FEET WITH NO SIGNIFICANT WEATHER AND/OR OBSTRUCTIONS TO VISIBILITY NCZ015>017-031-032-045>047-102-103-200800- NORTH COAST CITY SKY/WX TMP DP RH WIND PRES REMARKS EDENTON CLEAR 47 44 88 N3 30.06R ELIZABETH CITY CLEAR 48 45 89 CALM 30.06R KITTY HAWK NOT AVBL MANTEO CLEAR 45 44 95 CALM 30.06R $$ NCZ045>047-081-094-103-104-200800- CENTRAL COAST CITY SKY/WX TMP DP RH WIND PRES REMARKS FRISCO CLEAR 48 44 86 NW5 30.05R $$ NCZ095-097-098-100-101-200800- SOUTHERN COAST CITY SKY/WX TMP DP RH WIND PRES REMARKS BEAUFORT CLEAR 51 48 89 NW6 30.05S CEDAR ISLAND NOT AVBL JACKSONVILLE CLEAR 47 45 93 W3 30.07R PINEY ISLAND SUNNY N/A N/A N/A W6 30.05R WILMINGTON CLEAR 46 45 96 CALM 30.07S $$ NCZ011>013-027>030-043-044-078>080-089-090>093-098-200800- COASTAL PLAIN CITY SKY/WX TMP DP RH WIND PRES REMARKS AHOSKIE N/A 48 42 77 CALM 30.08S CLINTON CLEAR 53 45 76 CALM 30.08S ELIZABETHTOWN CLEAR 54 46 73 CALM 30.08R GOLDSBORO CLEAR 56 45 67 N6 30.06S GREENVILLE PTCLDY 52 45 76 CALM 30.08S HAVELOCK CLEAR 48 43 82 CALM 30.07R KENANSVILLE NOT AVBL KINSTON CLEAR 52 44 74 NW6 30.08R NEW BERN CLEAR 47 44 90 S3 30.07S RICHLANDS CLEAR 42 41 96 CALM 30.08R ROCKY MOUNT PTCLDY 51 43 74 N3 30.08R WASHINGTON CLEAR 51 44 75 CALM 30.07R WHITEVILLE PTCLDY 51 46 82 CALM 30.09R $$ AMZ130-135-150-152-154-156-158-170-250-252-270-ANZ085-086-088-633-658-670-200800- MARINE OBSERVATIONS STATION/POSITION TIME TEMP WIND PRES WAVE SWELL AIR SEA DIR/SP/G HT/PER HT/PER (UTC) (F) (DEG/KT/KT) (MB) (FT/S) (FT/S) CHESAPEAKE LIGHT NOT AVBL 64 E VA BEACH 0650 52 51 260/ 8/ 10 1016.8 1/ 8 2/ 8 DUCK 0700 53 47 270/ 5/ 6 1017.1 2 E DUCK 0700 49 N/A 1/ 7 OREGON INLET 0700 52 52 280/ 5/ 7 1017.5 13E OREGON INLT NOT AVBL HATTERAS CG 0700 54 56 CALM 1017.0 DIAMOND BUOY 0650 64 67 350/ 8/ 10 1017.2 1/ 7 2/ 7 CAPE LOOKOUT 0700 57 300/ 4/ 4 1017.2 BEAUFORT LAB 0700 54 53 350/ 4/ 5 1016.7 30 SE NEW RVR IN 0708 63 360/ 12/ 16 1017.7 30 SE NEW RVR IN 0643 63 N/A 2/ 6 27 SE WRIGHTSVLE 0708 59 61 340/ 6/ 10 1016.7 5 SE WRIGHTSVLE 0708 57 56 310/ 8/ 10 1017.7 225 S CAPE HAT 0650 70 71 360/ 19/ 21 1014.8 6/ 7 41 SE CHARLESTON 0650 66 69 350/ 8/ 10 1018.5 1/10 $$

USA.gov is the U.S. government's official web portal to all federal, state and local government web resources and services.